Location: Oriwa
(40.7500°S, 175.3333°E)
Time: 12:10:50
(UTC+00:00)

Cosmos 1271 Rocket - Pass Details

Date: 03 February 2023
Orbit: 488 x 533 km, 81.2° (Epoch: 31 March)

Event Time Altitude Azimuth Distance (km) Brightness Sun altitude
Rises 14:37:35 0° 190° (S) 2,608 6.9 -25.8°
Reaches altitude 10° 14:39:42 10° 189° (S) 1,720 5.9 -25.6°
Enters shadow 14:42:13 40° 188° (S) 750 3.7 -25.3°
